Concordia, KS

3:32 AM CDT on August 22, 2017 (GMT -0500)
Blosser Municipal

Weather History for KCNK - September, 2012

Change the Weather History Date:

Friday, September 7, 2012

  Actual Average Record
Temperature  
Mean Temperature 66 °F 72 °F  
Max Temperature 78 °F 84 °F 104 °F (1947)
Min Temperature 53 °F 60 °F 41 °F (1956)
Degree Days  
Heating Degree Days 0 1  
Month to date heating degree days 0 5  
Since 1 July heating degree days 0 8  
Cooling Degree Days 1 8  
Month to date cooling degree days 81 59  
Year to date cooling degree days 1603 1225  
Growing Degree Days 14 (Base 50)    
Moisture  
Dew Point 54 °F    
Average Humidity 66    
Maximum Humidity 87    
Minimum Humidity 44    
Precipitation  
Precipitation 0.20 in 0.10 in 2.81 in (1885)
Month to date precipitation 0.42 0.67  
Year to date precipitation 18.67 21.77  
Snow  
Snow 0.00 in 0.00 in 0.00 in ()
Month to date snowfall 0.0 0.0  
Year to date snowfall 5.8 13.7  
Since 1 July snowfall 0.0 0.0  
Snow Depth 0.00 in    
Sea Level Pressure  
Sea Level Pressure 29.98 in    
Wind  
Wind Speed 10 mph (NNW)    
Max Wind Speed 24 mph    
Max Gust Speed 32 mph    
Visibility 10 miles    
Events Rain , Thunderstorm    
T = Trace of Precipitation, MM = Missing Value Source: NWS Daily Summary

Daily Weather History Graph

Daily Weather History Graph

Search for Another Location

Airport or City:

Trip Planner

Search our weather history database for the weather conditions in past years. The results will help you decide how hot, cold, wet, or windy it might be!

Date:

Astronomy

Sep. 07, 2012 Rise Set
Actual Time 7:04 AM CDT 7:51 PM CDT
Civil Twilight 6:37 AM CDT 8:18 PM CDT
Nautical Twilight 6:05 AM CDT 8:50 PM CDT
Astronomical Twilight 5:31 AM CDT 9:23 PM CDT
Moon 11:49 PM CDT (9/7) 1:56 PM CDT (9/7)
Length of Visible Light 13h 40m
Length of Day
12h 46m
Waning Gibbous, 58% of the Moon is Illuminated
Sep 7
Waning Gibbous
Sep 8
Last Quarter
Sep 15
New
Sep 22
First Quarter
Sep 29
Full

Hourly Weather History & Observations

Time (CDT) Temp. Dew Point Humidity Pressure Visibility Wind Dir Wind Speed Gust Speed Precip Events Conditions
12:55 AM 79.0 °F 60.1 °F 52% 29.76 in 10.0 mi SW 12.7 mph 24.2 mph N/A   Clear
1:55 AM 73.0 °F 61.0 °F 66% 29.78 in 10.0 mi West 10.4 mph - N/A   Clear
2:55 AM 69.1 °F 62.1 °F 78% 29.80 in 10.0 mi WNW 8.1 mph - N/A   Clear
3:55 AM 66.0 °F 61.0 °F 84% 29.79 in 10.0 mi WNW 8.1 mph - N/A   Clear
4:55 AM 66.0 °F 62.1 °F 87% 29.80 in 10.0 mi WNW 6.9 mph - N/A   Clear
5:55 AM 66.0 °F 54.0 °F 65% 29.84 in 10.0 mi NNW 9.2 mph - N/A   Clear
6:55 AM 64.9 °F 51.1 °F 61% 29.89 in 10.0 mi North 9.2 mph - N/A   Clear
7:55 AM 66.9 °F 51.1 °F 57% 29.92 in 10.0 mi North 12.7 mph 20.7 mph N/A   Mostly Cloudy
8:55 AM 69.1 °F 50.0 °F 51% 29.94 in 10.0 mi North 15.0 mph 20.7 mph N/A   Scattered Clouds
9:55 AM 69.1 °F 51.1 °F 53% 29.97 in 10.0 mi North 13.8 mph - N/A   Overcast
10:55 AM 69.1 °F 50.0 °F 51% 30.00 in 10.0 mi North 15.0 mph 29.9 mph N/A   Overcast
11:55 AM 64.9 °F 52.0 °F 63% 30.01 in 10.0 mi North 12.7 mph 24.2 mph 0.00 in Rain Light Rain
12:13 PM 62.6 °F 53.6 °F 72% 30.08 in 10.0 mi NNW 6.9 mph - 0.01 in Rain , Thunderstorm Light Rain
12:55 PM 59.0 °F 55.0 °F 87% 30.09 in 4.0 mi NNW 8.1 mph - 0.14 in Rain Rain
1:55 PM 63.0 °F 57.9 °F 84% 30.06 in 10.0 mi NNW 5.8 mph - 0.06 in   Overcast
2:55 PM 66.0 °F 57.0 °F 73% 30.06 in 10.0 mi North 11.5 mph - N/A   Mostly Cloudy
3:55 PM 66.9 °F 52.0 °F 59% 30.05 in 10.0 mi North 15.0 mph 20.7 mph N/A   Partly Cloudy
4:55 PM 69.1 °F 51.1 °F 53% 30.05 in 10.0 mi North 15.0 mph 25.3 mph N/A   Clear
5:55 PM 71.1 °F 48.0 °F 44% 30.05 in 10.0 mi North 21.9 mph 32.2 mph N/A   Clear
6:55 PM 68.0 °F 50.0 °F 52% 30.06 in 10.0 mi North 12.7 mph - N/A   Clear
7:55 PM 63.0 °F 51.1 °F 65% 30.06 in 10.0 mi NNW 4.6 mph - N/A   Clear
8:55 PM 60.1 °F 51.1 °F 72% 30.09 in 10.0 mi NW 6.9 mph - N/A   Clear
9:55 PM 60.1 °F 48.9 °F 67% 30.11 in 10.0 mi NW 6.9 mph - N/A   Clear
10:55 PM 57.9 °F 48.0 °F 70% 30.13 in 10.0 mi NW 5.8 mph - N/A   Clear
11:55 PM 54.0 °F 48.9 °F 83% 30.15 in 10.0 mi WNW 6.9 mph - N/A   Clear